Preview of NWS' New Version of Forecast
This preview is not operational and should not be used for support decisions.

Regional Weather Roundup (RWR)

Issued by National Weather Service (NWS)

                            
000
ASUS43 KLSX 230907
RWRMO 

WEATHER SUMMARY FOR MISSOURI
NATIONAL WEATHER SERVICE SPRINGFIELD MO
400 AM CDT THU MAY 23 2019

NOTE: "FAIR" INDICATES FEW OR NO CLOUDS BELOW 12,000 FEET WITH NO
       SIGNIFICANT WEATHER AND/OR OBSTRUCTIONS TO VISIBILITY.
       CURRENT SKY AND/OR WEATHER CONDITIONS ARE NOT AVAILABLE FOR
       CHILLICOTHE AND FARMINGTON.

MOZ001>031-035>038-043-044-053-054-231000-
...NORTHERN AND WESTERN MISSOURI...
  
CITY           SKY/WX    TMP DP  RH WIND       PRES   REMARKS
KANSAS CTY INT CLEAR     54  49  83 CALM      30.00R                  
KANSAS C DTWN  CLEAR     56  53  90 CALM      29.99R                  
LEE'S SUMMIT   CLOUDY    57  53  86 N6        29.99S                  
ST JOSEPH      CLEAR     51  50  96 N5        30.01R                  
CHILLICOTHE      N/A     53  52  96 N3        30.01R                  
KIRKSVILLE     PTCLDY    53  52  96 W5        30.00S FOG              
     
$$
MOZ066>068-077>081-088>096-101>105-231000-
...SOUTHWEST MISSOURI...
  
CITY           SKY/WX    TMP DP  RH WIND       PRES   REMARKS
SPRINGFIELD    TSTM      65  62  90 S8        29.98F FOG              
JOPLIN         LGT RAIN  66  65  96 NE5       29.97R                  
BRANSON        CLOUDY    72  68  88 CALM      30.01S                  
               
$$
MOZ032>034-039>042-045>050-055>058-069>072-231000-
...CENTRAL MISSOURI...  
  
CITY           SKY/WX    TMP DP  RH WIND       PRES   REMARKS
COLUMBIA       LGT RAIN  65  63  93 CALM      29.99S FOG              
ROLLA          CLOUDY    71  68  90 NW7       30.03R                  
SEDALIA        CLOUDY    59 N/A N/A E5        29.99F                  
WHITEMAN AFB   MOCLDY    60  60 100 N3        29.94F                  
WARRENSBURG    CLOUDY    59  59 100 CALM      29.99F FOG              
OSAGE BEACH    LGT RAIN  67  67 100 VRB5      29.98F                  
               
$$
MOZ051-052-059>065-231000-
...EAST CENTRAL MISSOURI...
  
CITY           SKY/WX    TMP DP  RH WIND       PRES   REMARKS
ST LOUIS INTL  CLOUDY    71  67  87 SW14G26   29.99R THUNDER          
SPIRIT OF STL  CLOUDY    72  68  87 W7        29.96R                  
ST CHARLES     CLOUDY    71  68  90 SW7       29.99R                  
                   
$$
MOZ072>076-082>087-097>100-106>115-231000-
...SOUTH CENTRAL AND SOUTHEAST MISSOURI...
  
CITY           SKY/WX    TMP DP  RH WIND       PRES   REMARKS
CAPE GIRARDEAU FAIR      77  70  79 S10       30.02R                  
FARMINGTON     CLOUDY    75  71  87 S10       30.01S                  
POPLAR BLUFF   FAIR      75  73  93 S6        30.03R                  
WEST PLAINS    CLOUDY    75  69  81 SW7       30.05R                  
                                       
$$